Home   Weather   Chennai   Past weeks

Flag for India Past Weather in Chennai, Tamil Nadu, India — Yesterday and Last 2 Weeks

77 °F


Feels Like: 79 °F
Forecast: 74 / 91 °F
Wind: No wind

Location: Madras / Minambakkam

Current Time: Oct 25, 2016 at 1:30:57 AM

Latest Report: Oct 25, 2016 at 1:00 AM

Visibility: 2 mi

Pressure: 29.74 "Hg

Humidity: 69%

Dew Point: 66 °F

Location of ChennaiLocation

Past Weather in Chennai — Graph


Chennai Temperature Yesterday

Maximum temperature yesterday: 95 °F (at 2:30 PM)
Minimum temperature yesterday: 73 °F (at 6:00 AM)
Average temperature yesterday: 83 °F

High & Low Weather Summary for the Past Weeks

High97 °F (Oct 10, 3:00 PM)94% (Oct 14, 5:30 AM)29.86 "Hg (Oct 14, 5:30 AM)
Low73 °F (Oct 23, 4:00 AM)30% (Oct 24, 12:00 PM)29.62 "Hg (Oct 10, 3:00 PM)
Average84 °F67%29.74 "Hg
* Reported Oct 10 12:30 AM — Oct 25 12:30 AM, Chennai, Weather by CustomWeather, © 2016

Note: Actual official high and low records may vary slightly from our data, if they occured in-between our weather recording intervals... More about our weather records


Chennai Weather History for the Previous 24 Hours

Scroll right to see more
Time TempWeatherWind HumidityBarometerVisibility
12:30 AM
Tue, Oct 25
77 °FHaze.3 mph69%29.77 "Hg2 mi
12:00 AM77 °FHaze.3 mph69%29.77 "Hg2 mi
11:30 PM
Mon, Oct 24
77 °FHaze.No wind69%29.77 "Hg2 mi
11:00 PM77 °FPassing clouds.3 mph69%29.77 "Hg3 mi
10:30 PM79 °FPassing clouds.No wind70%29.80 "Hg3 mi
10:00 PM79 °FPassing clouds.No wind65%29.80 "Hg4 mi
9:30 PM79 °FPassing clouds.No wind65%29.80 "Hg4 mi
9:00 PM79 °FPassing clouds.5 mph65%29.80 "Hg4 mi
8:30 PM81 °FPassing clouds.3 mph58%29.80 "Hg4 mi
8:00 PM82 °FPassing clouds.5 mph55%29.77 "Hg4 mi
7:30 PM82 °FPassing clouds.5 mph51%29.77 "Hg4 mi
7:00 PM82 °FPassing clouds.5 mph51%29.74 "Hg4 mi
6:30 PM82 °FPassing clouds.5 mph51%29.71 "Hg4 mi
6:00 PM86 °FScattered clouds.9 mph38%29.71 "Hg4 mi
5:30 PM86 °FScattered clouds.7 mph40%29.71 "Hg4 mi
5:00 PM88 °FScattered clouds.9 mph38%29.71 "Hg4 mi
4:30 PM88 °FScattered clouds.12 mph40%29.71 "Hg4 mi
4:00 PM90 °FScattered clouds.12 mph38%29.68 "Hg4 mi
3:30 PM91 °FScattered clouds.8 mph34%29.68 "Hg4 mi
3:00 PM93 °FScattered clouds.5 mph32%29.68 "Hg4 mi
2:30 PM95 °FPassing clouds.5 mph32%29.71 "Hg4 mi
2:00 PM93 °FPassing clouds.3 mph32%29.71 "Hg4 mi
1:30 PM93 °FPassing clouds.2 mph36%29.74 "Hg4 mi
1:00 PM93 °FPassing clouds.8 mph32%29.77 "Hg4 mi
12:30 PM93 °FPassing clouds.9 mph32%29.77 "Hg4 mi
12:00 PM93 °FClear.12 mph30%29.80 "Hg4 mi
11:30 AM93 °FClear.7 mph32%29.80 "Hg4 mi
11:00 AM91 °FClear.6 mph36%29.83 "Hg4 mi
10:00 AM91 °FHaze.6 mph44%29.83 "Hg3 mi
9:30 AM88 °FHaze.6 mph52%29.83 "Hg2 mi
9:00 AM86 °FHaze.6 mph59%29.83 "Hg2 mi
8:30 AM82 °FHaze.6 mph66%29.83 "Hg2 mi
8:00 AM81 °FFog.3 mph74%29.83 "Hg2 mi
7:30 AM79 °FFog.3 mph74%29.83 "Hg2 mi
7:00 AM75 °FFog.No wind83%29.80 "Hg2 mi
6:30 AM73 °FFog.No wind83%29.80 "Hg2 mi
6:00 AM73 °FFog.No wind83%29.80 "Hg2 mi
5:30 AM75 °FFog.3 mph78%29.77 "Hg2 mi
5:00 AM75 °FFog.No wind78%29.77 "Hg2 mi
4:30 AM75 °FFog.No wind78%29.77 "Hg2 mi
4:00 AM75 °FFog.No wind78%29.77 "Hg2 mi
3:30 AM75 °FFog.3 mph78%29.77 "Hg2 mi
3:00 AM75 °FFog.3 mph78%29.77 "Hg2 mi
2:30 AM75 °FFog.3 mph78%29.77 "Hg2 mi
2:00 AM75 °FFog.No wind83%29.77 "Hg2 mi
1:30 AM77 °FHaze.No wind74%29.77 "Hg2 mi
1:00 AM77 °FHaze.No wind74%29.77 "Hg2 mi
Weather by CustomWeather, © 2016

See weather overviewHow to use our weather pages